When you browse on this site, cookies collect data to enhance your experience and personalize the content and advertising you see.
Visit our Privacy Policy to learn more. By continuing to use the site, you agree to this use of cookies and data.
  • In Italy
  • List of Countries
  • For 7 days
  • Water Temperature
  • Satellite Maps
  • Weather Map
  • Weather Widgets
  • user-avatar
    Login

    Hourly Weather Kapan

    Today, 18 June, Tuesday

    Time Temperature Precipitation Wind Pressure Humidity
    00:00 +21°C° 0.1 mm 1 mps 681 mmHg 74%
    01:00 +21°C° 0 mm 1 mps 681 mmHg 72%
    02:00 +21°C° 0 mm 1 mps 681 mmHg 70%
    03:00 +21°C° 0 mm 1 mps 681 mmHg 66%
    04:00 +22°C° 0.2 mm 1 mps 682 mmHg 67%
    05:00 +20°C° 0.2 mm 0 mps 682 mmHg 68%
    06:00 +21°C° 0.2 mm 0 mps 682 mmHg 69%
    07:00 +24°C° 0.1 mm 1 mps 682 mmHg 65%
    08:00 +25°C° 0.1 mm 1 mps 683 mmHg 62%
    09:00 +26°C° 0.1 mm 2 mps 683 mmHg 59%
    10:00 +27°C° 0.3 mm 2 mps 683 mmHg 56%
    11:00 +28°C° 0.3 mm 2 mps 682 mmHg 53%
    12:00 +29°C° 0.3 mm 3 mps 682 mmHg 50%
    13:00 +30°C° 0.3 mm 3 mps 682 mmHg 48%
    14:00 +30°C° 0.3 mm 3 mps 682 mmHg 47%
    15:00 +30°C° 0 mm 3 mps 681 mmHg 45%
    16:00 +29°C° 0.4 mm 3 mps 681 mmHg 49%
    17:00 +28°C° 0.4 mm 3 mps 681 mmHg 52%
    18:00 +28°C° 0.4 mm 3 mps 681 mmHg 55%
    19:00 +26°C° 0.1 mm 2 mps 681 mmHg 60%
    20:00 +24°C° 0.1 mm 2 mps 681 mmHg 64%
    21:00 +22°C° 0.1 mm 1 mps 681 mmHg 68%
    22:00 +21°C° 0.4 mm 1 mps 681 mmHg 71%
    23:00 +20°C° 0.4 mm 2 mps 681 mmHg 73%

    Tomorrow, 19 June, Wednesday

    Time Temperature Precipitation Wind Pressure Humidity
    00:00 +20°C° 0.4 mm 2 mps 682 mmHg 75%
    01:00 +19°C° 0 mm 2 mps 681 mmHg 75%
    02:00 +19°C° 0 mm 2 mps 681 mmHg 74%
    03:00 +19°C° 0 mm 2 mps 681 mmHg 73%
    04:00 +19°C° 0 mm 2 mps 682 mmHg 71%
    05:00 +20°C° 0 mm 2 mps 682 mmHg 68%
    06:00 +20°C° 0 mm 2 mps 682 mmHg 65%
    07:00 +23°C° 0 mm 2 mps 682 mmHg 59%
    08:00 +24°C° 0 mm 2 mps 682 mmHg 54%
    09:00 +26°C° 0 mm 2 mps 682 mmHg 48%
    10:00 +27°C° 0.2 mm 2 mps 682 mmHg 46%
    11:00 +28°C° 0.2 mm 2 mps 682 mmHg 45%
    12:00 +28°C° 0.2 mm 3 mps 682 mmHg 44%
    13:00 +29°C° 0.1 mm 3 mps 682 mmHg 43%
    14:00 +29°C° 0.1 mm 3 mps 682 mmHg 42%
    15:00 +29°C° 0.1 mm 3 mps 682 mmHg 41%
    16:00 +29°C° 0 mm 3 mps 682 mmHg 44%
    17:00 +28°C° 0 mm 3 mps 682 mmHg 48%
    18:00 +27°C° 0 mm 2 mps 682 mmHg 51%
    19:00 +26°C° 0 mm 2 mps 682 mmHg 52%
    20:00 +24°C° 0 mm 2 mps 682 mmHg 54%
    21:00 +22°C° 0 mm 1 mps 682 mmHg 56%
    22:00 +22°C° 0 mm 1 mps 682 mmHg 56%
    23:00 +20°C° 0 mm 2 mps 682 mmHg 56%

    Day after tomorrow, 20 June, Thursday

    Time Temperature Precipitation Wind Pressure Humidity
    00:00 +20°C° 0 mm 2 mps 682 mmHg 56%
    01:00 +20°C° 0 mm 2 mps 682 mmHg 56%
    02:00 +19°C° 0 mm 2 mps 682 mmHg 56%
    03:00 +19°C° 0 mm 2 mps 682 mmHg 55%
    04:00 +20°C° 0 mm 2 mps 682 mmHg 56%
    05:00 +21°C° 0 mm 1 mps 682 mmHg 57%
    06:00 +22°C° 0 mm 1 mps 682 mmHg 57%
    07:00 +24°C° 0 mm 1 mps 682 mmHg 52%
    08:00 +25°C° 0 mm 2 mps 683 mmHg 47%
    09:00 +27°C° 0 mm 2 mps 683 mmHg 42%
    10:00 +28°C° 0 mm 2 mps 683 mmHg 41%
    11:00 +28°C° 0 mm 2 mps 682 mmHg 40%
    12:00 +29°C° 0 mm 3 mps 682 mmHg 39%
    13:00 +29°C° 0 mm 3 mps 682 mmHg 39%
    14:00 +30°C° 0 mm 3 mps 681 mmHg 38%
    15:00 +30°C° 0 mm 3 mps 681 mmHg 38%
    16:00 +29°C° 0 mm 3 mps 681 mmHg 41%
    17:00 +29°C° 0 mm 3 mps 681 mmHg 44%
    18:00 +28°C° 0 mm 2 mps 680 mmHg 47%
    19:00 +26°C° 0 mm 2 mps 680 mmHg 49%
    20:00 +24°C° 0 mm 2 mps 680 mmHg 51%
    21:00 +21°C° 0 mm 2 mps 681 mmHg 53%
    22:00 +21°C° 0 mm 2 mps 681 mmHg 54%
    23:00 +20°C° 0 mm 2 mps 681 mmHg 54%

    21 June, Friday

    Time Temperature Precipitation Wind Pressure Humidity
    00:00 +20°C° 0 mm 2 mps 681 mmHg 54%
    01:00 +20°C° 0 mm 2 mps 680 mmHg 55%
    02:00 +19°C° 0 mm 2 mps 680 mmHg 56%
    03:00 +19°C° 0 mm 2 mps 680 mmHg 56%
    04:00 +20°C° 0 mm 2 mps 680 mmHg 57%
    05:00 +22°C° 0 mm 1 mps 681 mmHg 58%
    06:00 +22°C° 0 mm 1 mps 681 mmHg 59%
    07:00 +24°C° 0.2 mm 1 mps 681 mmHg 56%
    08:00 +25°C° 0.2 mm 2 mps 681 mmHg 52%
    09:00 +26°C° 0.2 mm 2 mps 682 mmHg 48%
    10:00 +27°C° 0.1 mm 2 mps 682 mmHg 47%
    11:00 +28°C° 0.1 mm 3 mps 681 mmHg 45%
    12:00 +28°C° 0.1 mm 3 mps 681 mmHg 43%
    13:00 +29°C° 0.1 mm 3 mps 681 mmHg 42%
    14:00 +29°C° 0.1 mm 3 mps 681 mmHg 41%
    15:00 +29°C° 0.1 mm 3 mps 681 mmHg 40%
    16:00 +28°C° 0 mm 3 mps 681 mmHg 44%
    17:00 +28°C° 0 mm 3 mps 681 mmHg 48%
    18:00 +27°C° 0 mm 3 mps 681 mmHg 52%
    19:00 +25°C° 0 mm 2 mps 682 mmHg 55%
    20:00 +24°C° 0 mm 2 mps 682 mmHg 59%
    21:00 +22°C° 0 mm 1 mps 682 mmHg 63%
    22:00 +22°C° 0 mm 1 mps 682 mmHg 64%
    23:00 +20°C° 0 mm 2 mps 682 mmHg 65%

    22 June, Saturday

    Time Temperature Precipitation Wind Pressure Humidity
    00:00 +20°C° 0 mm 2 mps 682 mmHg 67%
    01:00 +20°C° 0 mm 2 mps 682 mmHg 67%
    02:00 +19°C° 0 mm 2 mps 682 mmHg 67%
    03:00 +19°C° 0 mm 2 mps 682 mmHg 67%
    04:00 +20°C° 0 mm 2 mps 682 mmHg 66%
    05:00 +22°C° 0 mm 1 mps 683 mmHg 65%
    06:00 +23°C° 0 mm 1 mps 683 mmHg 65%
    07:00 +24°C° 0 mm 1 mps 683 mmHg 60%
    08:00 +26°C° 0 mm 2 mps 684 mmHg 54%
    09:00 +27°C° 0 mm 2 mps 684 mmHg 49%
    10:00 +28°C° 0 mm 2 mps 684 mmHg 47%
    11:00 +29°C° 0 mm 2 mps 684 mmHg 46%
    12:00 +29°C° 0 mm 3 mps 684 mmHg 44%
    13:00 +30°C° 0 mm 3 mps 684 mmHg 43%
    14:00 +30°C° 0 mm 3 mps 683 mmHg 43%
    15:00 +31°C° 0 mm 2 mps 683 mmHg 42%
    16:00 +30°C° 0 mm 3 mps 683 mmHg 44%
    17:00 +29°C° 0 mm 3 mps 683 mmHg 46%
    18:00 +29°C° 0 mm 3 mps 683 mmHg 49%
    19:00 +27°C° 0 mm 2 mps 683 mmHg 53%
    20:00 +25°C° 0 mm 2 mps 683 mmHg 57%
    21:00 +23°C° 0 mm 1 mps 683 mmHg 61%
    22:00 +21°C° 0 mm 2 mps 683 mmHg 62%
    23:00 +21°C° 0 mm 2 mps 683 mmHg 63%

    23 June, Sunday

    Time Temperature Precipitation Wind Pressure Humidity
    00:00 +21°C° 0 mm 2 mps 683 mmHg 64%
    01:00 +21°C° 0 mm 2 mps 683 mmHg 64%
    02:00 +21°C° 0 mm 2 mps 683 mmHg 64%
    03:00 +20°C° 0 mm 2 mps 683 mmHg 64%
    04:00 +21°C° 0 mm 2 mps 683 mmHg 63%
    05:00 +23°C° 0 mm 1 mps 684 mmHg 63%
    06:00 +24°C° 0 mm 1 mps 684 mmHg 62%
    07:00 +26°C° 0 mm 1 mps 684 mmHg 57%
    08:00 +27°C° 0 mm 2 mps 684 mmHg 52%
    09:00 +29°C° 0 mm 2 mps 685 mmHg 47%
    10:00 +30°C° 0 mm 2 mps 685 mmHg 45%
    11:00 +31°C° 0 mm 2 mps 684 mmHg 43%
    12:00 +33°C° 0 mm 3 mps 684 mmHg 42%
    13:00 +33°C° 0.1 mm 3 mps 684 mmHg 41%
    14:00 +33°C° 0.1 mm 3 mps 684 mmHg 40%
    15:00 +33°C° 0.1 mm 3 mps 683 mmHg 40%
    16:00 +33°C° 0 mm 3 mps 683 mmHg 42%
    17:00 +31°C° 0 mm 3 mps 683 mmHg 45%
    18:00 +30°C° 0 mm 3 mps 683 mmHg 47%
    19:00 +28°C° 0 mm 2 mps 683 mmHg 50%
    20:00 +26°C° 0 mm 2 mps 683 mmHg 53%
    21:00 +24°C° 0 mm 1 mps 683 mmHg 55%
    22:00 +24°C° 0 mm 2 mps 683 mmHg 57%
    23:00 +23°C° 0 mm 2 mps 683 mmHg 59%
    Show more